Date,TemperatureHighF,TemperatureAvgF,TemperatureLowF,DewpointHighF,DewpointAvgF,DewpointLowF,HumidityHigh,HumidityAvg,HumidityLow,PressureMaxIn,PressureMinIn,WindSpeedMaxMPH,WindSpeedAvgMPH,GustSpeedMaxMPH,PrecipitationSumIn
2013-10-1,78.7,65.3,53.4,62.4,57.7,52.1,96,79,50,30.00,29.88,5,0,5,0.00
2013-10-2,83.5,69.0,57.8,64.0,60.5,56.7,97,77,46,30.00,29.92,5,0,5,0.00
2013-10-3,81.8,69.6,60.4,67.0,62.8,59.0,96,80,58,30.06,29.96,5,0,5,0.00
2013-10-4,86.4,71.2,60.6,68.2,64.6,59.8,97,82,53,30.02,29.93,2,0,3,0.00
2013-10-5,86.8,73.8,65.6,68.2,65.8,63.6,95,78,50,29.99,29.89,3,0,5,0.00
2013-10-6,83.8,72.9,65.7,71.6,67.5,64.4,99,84,61,29.94,29.82,6,0,11,0.00
2013-10-7,73.8,66.1,56.3,71.5,63.2,47.0,97,91,72,29.96,29.66,14,0,15,0.83
2013-10-8,65.1,55.8,47.8,51.3,48.0,44.6,96,77,49,30.24,29.95,7,0,12,0.00
2013-10-9,59.2,55.7,52.9,51.9,49.2,45.8,92,79,71,30.28,30.15,5,0,9,0.04
2013-10-10,57.2,54.9,52.3,56.6,53.9,51.0,98,96,89,30.15,29.92,6,1,9,2.03
2013-10-11,62.1,59.5,56.6,61.5,58.9,56.0,99,98,96,29.94,29.86,11,1,11,2.22
2013-10-12,66.6,62.2,58.5,60.9,58.4,54.9,98,88,69,30.12,29.93,5,1,6,0.22
2013-10-13,64.5,59.6,55.1,58.2,55.8,51.8,97,87,73,30.28,30.11,5,1,7,0.01
2013-10-14,67.2,58.0,53.0,56.0,52.8,51.4,97,84,59,30.29,30.16,3,0,4,0.00
2013-10-15,69.9,57.7,49.1,54.0,49.5,36.7,99,78,30,30.18,30.02,3,0,4,0.00
2013-10-16,65.9,60.8,57.4,61.4,57.9,53.3,98,90,84,30.02,29.85,2,0,2,0.00
2013-10-17,72.3,64.9,60.1,65.1,62.2,56.9,99,91,75,29.85,29.63,5,0,5,0.02
2013-10-18,64.2,56.3,47.3,56.9,46.2,42.6,93,70,48,29.95,29.72,4,0,7,0.01
2013-10-19,63.4,54.1,45.3,57.3,49.9,44.2,96,87,59,29.95,29.72,6,0,6,0.04
2013-10-20,60.6,51.2,43.2,50.0,40.5,36.5,92,69,41,30.05,29.77,5,0,7,0.01
2013-10-21,65.1,52.2,40.0,48.6,43.1,39.0,97,74,40,30.09,29.90,4,0,6,0.00
2013-10-22,60.5,52.4,45.0,52.0,46.4,39.5,97,81,59,29.90,29.75,1,0,2,0.00
2013-10-23,54.9,48.5,43.6,39.8,36.3,34.0,77,63,47,29.80,29.58,3,0,4,0.00
2013-10-24,50.1,43.9,37.2,36.7,32.5,27.6,86,65,42,30.05,29.80,5,0,6,0.00
2013-10-25,53.7,43.7,35.4,36.2,32.5,30.4,85,66,44,30.24,30.04,6,0,7,0.00
2013-10-26,54.7,45.1,33.9,36.4,31.6,28.7,88,61,38,30.22,29.87,6,0,10,0.00
2013-10-27,57.6,46.9,37.6,38.7,35.8,32.9,89,67,43,30.11,29.87,3,0,7,0.00
2013-10-28,61.6,46.5,35.4,43.3,38.8,34.0,95,77,44,30.23,30.08,4,0,4,0.00
2013-10-29,60.8,48.4,40.0,45.9,41.8,37.2,94,79,52,30.35,30.22,3,0,4,0.00
2013-10-30,61.3,52.7,46.4,56.2,50.9,44.3,98,94,81,30.27,30.09,3,0,5,0.10
2013-10-31,65.8,58.6,50.9,61.0,56.7,50.1,99,94,83,30.14,29.71,4,0,4,0.02